sat.trackr.live / text

‹ back to catalog

KSM1-B

NORAD 46914 · 2020-081K

PAYLOAD ACTIVE UNKNOWN

§ Identity

Operator
Country
LUXE
Launch date
2020-11-07
Launch site
SRILR
Launch vehicle
Mass (kg)
RCS (m²)

External: N2YO · Heavens-Above · Gunter

§ Orbital elements

Epoch: 2026-09-20T05:23:35.716416Z

Period
94.38 min
Inclination
36.9011°
Eccentricity
0.0004720
Mean motion
15.25679131 rev/d
Perigee alt
485.5 km
Apogee alt
492.0 km
Semi-major
6,866.9 km
B*
2.1154e-4
RAAN
203.3544°
Arg perigee
323.4155°
Mean anomaly
36.6271°
Rev number
32,670

§ Raw data

KSM1-B1 46914U 20081K   26263.22471894  .00005420  00000+0  21154-3 0  99972 46914  36.9011 203.3544 0004720 323.4155  36.6271 15.25679131326706

JSON: /api/v1/satellites/46914 · /tle

For live sub-satellite position, see the globe view (requires WebGL).

§ Visibility from observer

Set your observer location to see the next 7 days of passes ≥ 10°. The values pass through the URL so the page stays shareable.

No JS? Fill the form by hand. The geolocation button needs JavaScript.

§ Radio — SatNOGS DB

ModeDescriptionDownlinkUplink
FSK AX.100 Mode 5 Mode U 401.060 MHz

1 transmitter · refreshed weekly from db.satnogs.org